GW4076 Weather Reports


time (UTC)temp
C
wind
direction
speed
KPH
gust
KPH
rain 1hr
cm
rain 24hr
cm
rain mn
cm
humidity
%
barometer
mb
20260506212543 17 0 0.0 1.6 0.00 0.46 0.46 92 1008.3
20260506212042 17 0 0.0 1.6 0.00 0.46 0.46 92 1008.2
20260506211551 17 0 0.0 1.6 0.00 0.46 0.46 92 1008.2
20260506211044 17 0 0.0 1.6 0.00 0.46 0.46 93 1007.9
20260506210547 17 0 0.0 1.6 0.00 0.46 0.46 92 1007.9
20260506210054 17 0 0.0 1.6 0.00 0.46 0.46 93 1007.9
20260506205543 17 0 0.0 0.0 0.00 0.46 0.46 93 1007.7
20260506205043 17 0 0.0 1.6 0.00 0.46 0.46 93 1007.9
20260506204600 17 0 0.0 1.6 0.00 0.46 0.46 93 1007.9
20260506204045 17 0 0.0 0.0 0.00 0.46 0.46 93 1007.8
20260506203544 17 0 0.0 1.6 0.00 0.46 0.46 93 1007.6
20260506203056 17 0 0.0 1.6 0.00 0.46 0.46 92 1007.8
20260506202542 17 0 0.0 1.6 0.00 0.46 0.46 92 1007.8
20260506202044 17 0 0.0 1.6 0.00 0.46 0.46 92 1007.8
20260506201556 17 0 0.0 1.6 0.03 0.46 0.46 92 1007.7
20260506201043 17 0 0.0 1.6 0.03 0.46 0.46 92 1007.7
20260506200543 17 0 0.0 1.6 0.03 0.46 0.46 92 1007.9
20260506200109 17 0 0.0 0.0 0.03 0.46 0.46 91 1007.8
20260506195542 17 0 0.0 0.0 0.03 0.46 0.46 91 1008.0
20260506195042 17 0 0.0 0.0 0.03 0.46 0.46 91 1007.8
20260506194611 17 0 0.0 0.0 0.03 0.46 0.46 90 1007.7
20260506194043 17 0 0.0 0.0 0.03 0.46 0.46 90 1007.8
20260506193544 17 0 0.0 1.6 0.03 0.46 0.46 89 1007.8
20260506193055 17 0 0.0 1.6 0.03 0.46 0.46 88 1008.0
20260506192544 17 0 0.0 3.2 0.03 0.46 0.46 88 1008.0
20260506192048 17 0 0.0 3.2 0.03 0.46 0.46 88 1008.1
20260506191552 17 0 0.0 9.7 0.00 0.43 0.43 87 1007.9
20260506191042 17 0 0.0 9.7 0.00 0.43 0.43 87 1008.0
20260506190545 17 0 0.0 9.7 0.00 0.43 0.43 87 1007.9
20260506190052 17 0 0.0 4.8 0.00 0.43 0.43 86 1008.0
20260506185544 17 0 0.0 6.4 0.00 0.43 0.43 86 1007.9
20260506185047 17 183 0.0 6.4 0.00 0.43 0.43 86 1008.0
20260506184602 17 0 1.6 6.4 0.00 0.43 0.43 85 1008.1
20260506184042 17 201 1.6 6.4 0.00 0.43 0.43 85 1008.1
20260506183541 17 186 1.6 6.4 0.00 0.43 0.43 85 1008.1
20260506183102 17 185 1.6 11.3 0.00 0.43 0.43 85 1008.3
20260506182543 17 185 1.6 11.3 0.00 0.43 0.43 86 1008.1
20260506182043 17 171 0.0 4.8 0.00 0.43 0.43 87 1008.2
20260506181553 17 68 0.0 4.8 0.00 0.43 0.43 87 1008.2
20260506181045 17 0 0.0 4.8 0.00 0.43 0.43 88 1008.3
20260506180547 17 11 0.0 4.8 0.00 0.43 0.43 88 1008.3
20260506180050 17 0 0.0 4.8 0.00 0.43 0.43 87 1008.4
20260506175546 17 190 1.6 8.0 0.00 0.43 0.43 86 1008.5
20260506175043 17 0 1.6 8.0 0.00 0.43 0.43 86 1008.4
20260506174549 17 160 1.6 8.0 0.00 0.43 0.43 85 1008.5
20260506174044 17 160 1.6 8.0 0.00 0.43 0.43 85 1008.4
20260506173542 17 190 1.6 8.0 0.00 0.43 0.43 85 1008.4
20260506173055 17 189 1.6 8.0 0.00 0.43 0.43 85 1008.3
20260506172543 17 194 1.6 8.0 0.00 0.43 0.43 85 1008.4
20260506172056 17 237 3.2 11.3 0.00 0.43 0.43 85 1008.3
20260506171559 17 194 3.2 11.3 0.00 0.43 0.43 85 1008.2
20260506171042 17 213 3.2 11.3 0.00 0.43 0.43 86 1008.3
20260506170542 17 0 3.2 9.7 0.00 0.43 0.43 86 1008.3
20260506170057 17 176 3.2 8.0 0.00 0.43 0.43 87 1008.4
20260506165544 17 240 3.2 9.7 0.00 0.43 0.43 88 1008.4
20260506165042 17 182 4.8 12.9 0.00 0.43 0.43 88 1008.4
20260506164557 16 169 3.2 12.9 0.00 0.43 0.43 90 1008.4
20260506164044 16 174 3.2 16.1 0.00 0.43 0.43 90 1008.4
20260506163542 16 179 4.8 16.1 0.00 0.43 0.43 91 1008.4
20260506163055 16 171 3.2 12.9 0.00 0.43 0.43 91 1008.4
20260506162544 16 155 3.2 12.9 0.00 0.43 0.43 92 1008.5
20260506162044 15 178 3.2 9.7 0.00 0.43 0.43 92 1008.6
20260506161603 15 167 1.6 8.0 0.00 0.43 0.43 92 1008.6
20260506161045 15 207 3.2 9.7 0.00 0.43 0.43 93 1008.4
20260506160545 15 134 3.2 9.7 0.00 0.43 0.43 93 1008.3
20260506160055 15 360 1.6 14.5 0.00 0.43 0.43 93 1008.5
20260506155542 15 162 3.2 14.5 0.00 0.43 0.43 93 1008.4
20260506155046 15 229 1.6 11.3 0.00 0.43 0.43 93 1008.5
20260506154556 15 0 3.2 11.3 0.00 0.43 0.43 93 1008.6
20260506154049 15 217 1.6 9.7 0.00 0.43 0.43 93 1008.7
20260506153543 15 174 1.6 9.7 0.00 0.43 0.43 93 1008.5
20260506153051 15 172 4.8 9.7 0.03 0.43 0.43 93 1008.4
20260506152542 15 0 3.2 11.3 0.03 0.43 0.43 93 1008.5
20260506152047 15 170 3.2 11.3 0.03 0.43 0.43 93 1008.5
20260506151605 15 136 1.6 6.4 0.03 0.43 0.43 93 1008.4
20260506151044 15 215 1.6 8.0 0.03 0.43 0.43 93 1008.3
20260506150544 15 141 1.6 8.0 0.03 0.43 0.43 93 1008.4
20260506150056 15 163 3.2 8.0 0.03 0.43 0.43 94 1008.9
20260506145546 15 159 1.6 9.7 0.03 0.43 0.43 94 1008.7
20260506145045 15 160 4.8 9.7 0.03 0.43 0.43 93 1008.5
20260506144550 15 161 1.6 9.7 0.03 0.43 0.43 93 1008.5
20260506144043 15 153 1.6 11.3 0.03 0.43 0.43 93 1008.7
20260506143543 15 88 0.0 11.3 0.05 0.43 0.43 93 1008.9
20260506143057 15 0 1.6 11.3 0.03 0.41 0.41 93 1009.1
20260506142543 15 0 1.6 6.4 0.03 0.41 0.41 93 1009.2
20260506142044 15 0 0.0 6.4 0.03 0.41 0.41 93 1009.1
20260506141607 15 20 1.6 4.8 0.05 0.41 0.41 93 1009.0
20260506141042 15 194 0.0 8.0 0.05 0.41 0.41 93 1009.1
20260506140546 15 194 1.6 8.0 0.08 0.41 0.41 93 1009.2
20260506140106 15 155 1.6 6.4 0.08 0.41 0.41 93 1009.0
20260506135541 15 175 1.6 6.4 0.08 0.41 0.41 93 1008.9
20260506135044 15 175 1.6 6.4 0.08 0.41 0.41 93 1008.9
20260506134555 15 175 1.6 6.4 0.10 0.41 0.41 93 1009.1
20260506134041 15 0 1.6 6.4 0.10 0.41 0.41 93 1008.9
20260506133545 15 179 3.2 6.4 0.10 0.38 0.38 93 1008.9
20260506133052 15 113 1.6 6.4 0.10 0.38 0.38 93 1008.9
20260506132544 15 0 1.6 4.8 0.10 0.38 0.38 93 1008.9
20260506132044 15 37 0.0 6.4 0.10 0.36 0.36 93 1009.1
20260506131555 15 36 0.0 6.4 0.13 0.36 0.36 93 1009.0
20260506131043 15 34 0.0 6.4 0.13 0.36 0.36 93 1009.2
20260506130542 15 343 0.0 6.4 0.13 0.33 0.33 93 1009.3
20260506130125 15 343 1.6 6.4 0.15 0.33 0.33 92 1009.2
20260506125542 15 5 0.0 4.8 0.18 0.33 0.33 92 1009.2
20260506125044 14 294 1.6 4.8 0.18 0.33 0.33 92 1009.2
20260506124556 15 297 0.0 4.8 0.18 0.30 0.30 92 1009.1
20260506124042 15 0 0.0 4.8 0.20 0.30 0.30 92 1009.4
20260506123544 15 0 1.6 4.8 0.18 0.28 0.28 92 1009.4
20260506123055 15 349 0.0 4.8 0.20 0.28 0.28 92 1009.2
20260506122544 15 349 1.6 4.8 0.23 0.28 0.28 92 1009.0
20260506122044 15 349 0.0 3.2 0.20 0.25 0.25 92 1009.1
20260506121555 15 0 0.0 3.2 0.20 0.23 0.23 91 1009.3
20260506121043 15 349 0.0 3.2 0.18 0.20 0.20 91 1009.4
20260506120544 15 349 0.0 3.2 0.18 0.20 0.20 91 1009.4
20260506120053 15 0 0.0 1.6 0.15 0.18 0.18 90 1009.4
20260506115545 15 0 0.0 3.2 0.13 0.15 0.15 90 1009.7
20260506115044 15 0 0.0 4.8 0.13 0.15 0.15 89 1009.6
20260506114554 15 0 0.0 4.8 0.10 0.13 0.13 88 1009.6
20260506114044 15 0 0.0 3.2 0.08 0.10 0.10 88 1009.6
20260506113544 15 276 0.0 3.2 0.08 0.10 0.10 87 1009.6
20260506113105 15 0 0.0 3.2 0.05 0.08 0.08 86 1009.7
20260506112543 15 0 0.0 3.2 0.05 0.05 0.05 85 1009.7
20260506112043 15 276 0.0 3.2 0.05 0.05 0.05 85 1009.7
20260506111554 15 276 0.0 3.2 0.03 0.03 0.03 84 1009.5
20260506111043 15 276 0.0 3.2 0.03 0.03 0.03 84 1009.4
20260506110545 15 0 0.0 3.2 0.03 0.03 0.03 85 1009.3
20260506110100 16 0 0.0 0.0 0.03 0.03 0.03 84 1009.1
20260506105544 16 0 0.0 3.2 0.03 0.03 0.03 83 1009.1
20260506105046 16 0 0.0 3.2 0.03 0.03 0.03 83 1009.1
20260506104614 16 0 0.0 3.2 0.03 0.03 0.03 82 1009.1
20260506104043 16 0 0.0 3.2 0.03 0.03 0.03 80 1009.0
20260506103543 16 136 0.0 4.8 0.03 0.03 0.03 80 1009.0
20260506103053 16 0 0.0 4.8 0.03 0.03 0.03 79 1008.9
20260506102544 16 0 0.0 4.8 0.00 0.00 0.00 78 1009.0
20260506102042 16 0 0.0 9.7 0.00 0.00 0.00 78 1008.8
20260506101556 16 128 1.6 9.7 0.00 0.00 0.00 77 1008.7
20260506101045 17 171 0.0 6.4 0.00 0.00 0.00 77 1008.7
20260506100548 17 0 1.6 6.4 0.00 0.00 0.00 76 1008.6
20260506100054 17 170 1.6 8.0 0.00 0.00 0.00 74 1008.7
20260506095547 17 170 3.2 8.0 0.00 0.00 0.00 73 1008.6
20260506095044 17 182 0.0 9.7 0.00 0.00 0.00 72 1008.6
20260506094558 17 181 1.6 9.7 0.00 0.00 0.00 71 1008.6
20260506094044 17 283 3.2 9.7 0.00 0.00 0.00 69 1008.5
20260506093547 18 163 3.2 9.7 0.00 0.00 0.00 69 1008.5
20260506093100 18 157 1.6 11.3 0.00 0.00 0.00 68 1008.5
20260506092543 18 177 0.0 11.3 0.00 0.00 0.00 68 1008.6
20260506092043 18 159 4.8 11.3 0.00 0.00 0.00 68 1008.6
20260506091552 18 169 4.8 12.9 0.00 0.00 0.00 67 1008.5
20260506091047 18 167 3.2 12.9 0.00 0.00 0.00 67 1008.5
20260506090548 18 165 1.6 9.7 0.00 0.00 0.00 67 1008.5
20260506090050 18 138 0.0 9.7 0.00 0.00 0.00 66 1008.5
20260506085543 18 0 3.2 9.7 0.00 0.00 0.00 66 1008.5
20260506085043 18 165 1.6 9.7 0.00 0.00 0.00 66 1008.6
20260506084553 18 165 1.6 9.7 0.00 0.00 0.00 66 1008.7
20260506084043 18 167 3.2 11.3 0.00 0.00 0.00 66 1008.6
20260506083542 18 167 4.8 11.3 0.00 0.00 0.00 65 1008.7
20260506083050 18 199 1.6 9.7 0.00 0.00 0.00 65 1008.8
20260506082542 18 189 3.2 9.7 0.00 0.00 0.00 65 1008.8
20260506082047 18 155 1.6 9.7 0.00 0.00 0.00 65 1008.8
20260506081549 18 176 1.6 9.7 0.00 0.00 0.00 65 1008.8
20260506081042 18 160 1.6 11.3 0.00 0.00 0.00 65 1008.8
20260506080543 18 0 1.6 11.3 0.00 0.00 0.00 65 1008.8
20260506073058 18 178 3.2 11.3 0.00 0.00 0.00 62 1008.7
20260506072544 18 196 1.6 9.7 0.00 0.00 0.00 62 1008.8
20260506072045 18 64 1.6 9.7 0.00 0.00 0.00 62 1008.8
20260506071611 18 165 3.2 9.7 0.00 0.00 0.00 61 1008.8
20260506071042 18 191 1.6 8.0 0.00 0.00 0.00 61 1008.8
20260506070543 18 188 3.2 9.7 0.00 0.00 0.00 61 1008.8
20260506062042 19 0 0.0 4.8 0.00 0.00 0.00 59 1009.4
20260506061551 19 143 1.6 6.4 0.00 0.00 0.00 59 1009.5
20260506061044 19 0 0.0 6.4 0.00 0.00 0.00 59 1009.5
20260506060546 19 143 1.6 6.4 0.00 0.00 0.00 58 1009.5
20260506051043 19 84 1.6 4.8 0.00 0.00 0.00 56 1010.0
20260506050543 19 331 0.0 4.8 0.00 0.00 0.00 55 1010.1
20260506045044 20 0 0.0 4.8 0.00 0.00 0.00 54 1010.1
20260506044555 20 0 0.0 6.4 0.00 0.00 0.00 53 1010.1
20260506044043 20 0 1.6 6.4 0.00 0.00 0.00 52 1010.0
20260506043547 20 331 0.0 4.8 0.00 0.00 0.00 52 1010.1
20260506043050 20 332 0.0 4.8 0.00 0.00 0.00 52 1010.0
20260506042543 20 0 0.0 4.8 0.00 0.00 0.00 51 1010.1
20260506042042 20 0 0.0 4.8 0.00 0.00 0.00 51 1010.1
20260506041559 20 0 0.0 4.8 0.00 0.00 0.00 50 1010.0
20260506041044 20 0 0.0 3.2 0.00 0.00 0.00 50 1010.1
20260506040545 20 0 0.0 3.2 0.00 0.00 0.00 49 1010.0
20260506040050 20 0 0.0 4.8 0.00 0.00 0.00 49 1010.0
20260506035547 20 0 0.0 6.4 0.00 0.00 0.00 50 1010.0
20260506035047 20 0 0.0 6.4 0.00 0.00 0.00 49 1010.0
20260506034554 20 0 0.0 6.4 0.00 0.00 0.00 48 1009.9
20260506034044 20 0 0.0 6.4 0.00 0.00 0.00 47 1010.0
20260506033547 20 0 0.0 6.4 0.00 0.00 0.00 48 1010.0
20260506033052 20 0 0.0 6.4 0.00 0.00 0.00 47 1010.0
20260506032543 20 161 0.0 3.2 0.00 0.00 0.00 47 1009.9
20260506032043 20 0 0.0 3.2 0.00 0.00 0.00 48 1009.8
20260506031555 20 161 0.0 3.2 0.00 0.00 0.00 48 1009.8
20260506031043 20 0 0.0 3.2 0.00 0.00 0.00 48 1009.8
20260506030542 20 161 0.0 3.2 0.00 0.00 0.00 47 1009.8
20260506030051 20 0 0.0 3.2 0.00 0.00 0.00 49 1009.8
20260506025546 20 0 0.0 3.2 0.00 0.00 0.00 48 1009.9
20260506025045 20 161 0.0 6.4 0.00 0.00 0.00 48 1009.9
20260506024550 20 0 0.0 6.4 0.00 0.00 0.00 46 1010.0
20260506024043 20 0 0.0 3.2 0.00 0.00 0.00 47 1009.9
20260506023542 20 0 0.0 3.2 0.00 0.00 0.00 46 1009.9
20260506023051 21 0 0.0 4.8 0.00 0.00 0.00 46 1009.8
20260506022542 21 0 0.0 6.4 0.00 0.00 0.00 45 1010.0
20260506022043 21 0 0.0 6.4 0.00 0.00 0.00 45 1009.9
20260506021553 21 0 0.0 6.4 0.00 0.00 0.00 45 1009.9
20260506021045 21 0 0.0 3.2 0.00 0.00 0.00 45 1010.0
20260506020542 21 161 0.0 3.2 0.00 0.00 0.00 44 1010.0
20260506020048 21 0 0.0 6.4 0.00 0.00 0.00 43 1009.9
20260506015543 21 0 0.0 6.4 0.00 0.00 0.00 42 1009.9
20260506015042 21 0 0.0 3.2 0.00 0.00 0.00 43 1009.7
20260506014558 21 0 0.0 4.8 0.00 0.00 0.00 42 1009.7
20260506014044 21 161 0.0 6.4 0.00 0.00 0.00 40 1009.7
20260506013542 21 0 1.6 6.4 0.00 0.00 0.00 39 1009.6
20260506013055 22 161 0.0 8.0 0.00 0.00 0.00 39 1009.6
20260506012545 22 160 0.0 8.0 0.00 0.00 0.00 38 1009.5
20260506012043 22 160 0.0 9.7 0.00 0.00 0.00 38 1009.5
20260506011551 22 0 1.6 9.7 0.00 0.00 0.00 37 1009.4
20260506011042 22 181 1.6 6.4 0.00 0.00 0.00 37 1009.4
20260506010545 22 181 0.0 6.4 0.00 0.00 0.00 37 1009.3
20260506010057 22 181 1.6 4.8 0.00 0.00 0.00 37 1009.2
20260506005542 22 181 1.6 4.8 0.00 0.00 0.00 37 1009.2
20260506005042 22 0 0.0 4.8 0.00 0.00 0.00 37 1009.2
20260506004556 22 0 1.6 6.4 0.00 0.00 0.00 36 1009.2
20260506004042 22 181 1.6 6.4 0.00 0.00 0.00 36 1009.1
20260506003543 22 182 3.2 6.4 0.00 0.00 0.00 36 1008.9
20260506003050 22 0 1.6 6.4 0.00 0.00 0.00 37 1008.9
20260506002545 22 180 1.6 6.4 0.00 0.00 0.00 37 1009.0
20260506002042 22 0 1.6 6.4 0.00 0.00 0.00 37 1008.9
20260506001609 23 161 0.0 6.4 0.00 0.00 0.00 36 1008.8
20260506001042 23 161 1.6 6.4 0.00 0.00 0.00 36 1008.8
20260506000542 23 161 0.0 6.4 0.00 0.00 0.00 37 1008.7
20260506000051 23 161 0.0 8.0 0.00 0.00 0.00 37 1008.6
20260505235543 23 161 1.6 8.0 0.00 0.00 0.00 36 1008.5
20260505235046 23 161 1.6 8.0 0.00 0.00 0.00 37 1008.5
20260505234551 23 161 1.6 8.0 0.00 0.00 0.00 36 1008.6
20260505234043 24 161 1.6 6.4 0.00 0.00 0.00 37 1008.4
20260505233546 24 184 1.6 12.9 0.00 0.00 0.00 36 1008.5
20260505233055 24 184 1.6 12.9 0.00 0.00 0.00 36 1008.5
20260505232543 24 165 1.6 9.7 0.00 0.00 0.00 36 1008.5
20260505232043 25 157 1.6 9.7 0.00 0.00 0.00 34 1008.6
20260505231555 25 204 3.2 9.7 0.00 0.00 0.00 35 1008.5
20260505231046 25 164 1.6 11.3 0.00 0.00 0.00 35 1008.5
20260505230544 25 169 3.2 12.9 0.00 0.00 0.00 35 1008.4
20260505225542 25 183 3.2 12.9 0.00 0.00 0.00 34 1008.4
20260505225043 25 170 4.8 14.5 0.00 0.00 0.00 34 1008.4
20260505224556 25 211 4.8 14.5 0.00 0.00 0.00 34 1008.4
20260505224042 25 169 3.2 9.7 0.00 0.00 0.00 35 1008.5
20260505223542 25 159 3.2 11.3 0.00 0.00 0.00 35 1008.4
20260505223059 25 205 3.2 16.1 0.00 0.00 0.00 35 1008.5
20260505222542 25 178 4.8 16.1 0.00 0.00 0.00 35 1008.6
20260505222045 25 211 3.2 11.3 0.00 0.00 0.00 36 1008.6
20260505221600 25 197 3.2 14.5 0.00 0.00 0.00 34 1008.4
20260505221044 25 145 4.8 14.5 0.00 0.00 0.00 34 1008.6
20260505220547 25 165 3.2 11.3 0.00 0.00 0.00 34 1008.6
20260505220056 25 168 3.2 11.3 0.00 0.00 0.00 35 1008.7
20260505215542 25 191 4.8 11.3 0.00 0.00 0.00 34 1008.5
20260505215045 25 157 4.8 11.3 0.00 0.00 0.00 35 1008.6
20260505214605 25 159 3.2 11.3 0.00 0.00 0.00 36 1008.6
20260505214042 25 137 3.2 11.3 0.00 0.00 0.00 36 1008.6
20260505213542 25 115 4.8 11.3 0.00 0.00 0.00 35 1008.5
20260505213100 25 188 1.6 11.3 0.00 0.00 0.00 37 1008.3